This is the latest recevied weather packets stored in our database for station/object M0HPP-13. If no packets are shown the sender has not sent any weather packets the latest 10 day(s).
| Time | Temp. | Humidity | Pressure | Rain* | Wind** | Luminosity | Snow |
|---|---|---|---|---|---|---|---|
| 1788320886 | 5.56° C | 99% | 1012.7 hPa | 0 mm | - | 0 W/m² | - |
| 1788320286 | 5.56° C | 99% | 1012.7 hPa | 0 mm | - | 0 W/m² | - |
| 1788319686 | 5.56° C | 99% | 1012.5 hPa | 0 mm | - | 0 W/m² | - |
| 1788319086 | 6.11° C | 98% | 1012.6 hPa | 0 mm | - | 0 W/m² | - |
| 1788318486 | 6.11° C | 98% | 1012.7 hPa | 0 mm | - | 0 W/m² | - |
| 1788317886 | 5.56° C | 98% | 1012.6 hPa | 0 mm | - | 0 W/m² | - |
| 1788317286 | 6.11° C | 97% | 1012.7 hPa | 0 mm | - | 0 W/m² | - |
| 1788316686 | 6.11° C | 96% | 1012.7 hPa | 0 mm | - | 0 W/m² | - |
| 1788316086 | 6.67° C | 96% | 1012.6 hPa | 0 mm | - | 0 W/m² | - |
| 1788315486 | 7.22° C | 96% | 1012.7 hPa | 0 mm | - | 0 W/m² | - |
| 1788314886 | 7.22° C | 95% | 1012.6 hPa | 0 mm | - | 0 W/m² | - |
| 1788314286 | 7.78° C | 94% | 1012.5 hPa | 0 mm | - | 0 W/m² | - |
| 1788313686 | 8.33° C | 90% | 1012.3 hPa | 0 mm | - | 0 W/m² | - |
| 1788313086 | 8.33° C | 89% | 1012.3 hPa | 0 mm | - | 0 W/m² | - |
| 1788312486 | 8.33° C | 94% | 1012.3 hPa | 0 mm | - | 0 W/m² | - |
| 1788311886 | 7.78° C | 95% | 1012.2 hPa | 0 mm | - | 0 W/m² | - |
| 1788311286 | 8.33° C | 95% | 1012.2 hPa | 0 mm | - | 0 W/m² | - |
| 1788310686 | 8.33° C | 95% | 1012.1 hPa | 0 mm | - | 0 W/m² | - |
| 1788310086 | 8.33° C | 96% | 1012.3 hPa | 0 mm | - | 0 W/m² | - |
| 1788309486 | 8.33° C | 95% | 1012.3 hPa | 0 mm | - | 0 W/m² | - |
| 1788308886 | 8.33° C | 95% | 1012.2 hPa | 0 mm | - | 0 W/m² | - |
| 1788308286 | 7.78° C | 95% | 1012.1 hPa | 0 mm | - | 0 W/m² | - |
| 1788307686 | 8.33° C | 95% | 1012 hPa | 0 mm | - | 0 W/m² | - |
| 1788307086 | 8.33° C | 95% | 1012 hPa | 0 mm | - | 0 W/m² | - |
| 1788306486 | 8.33° C | 95% | 1011.9 hPa | 0 mm | - | 0 W/m² | - |
* Rain latest hour (hover to see other rain measurements)
** Current wind speed in m/s (hover to see current wind gust speed)